Temp
7 7 7 8 7 7 7 7 7 7 7 7 7 7 7 7 7 7 7 8 8 8 8 8 8 9 9 9 9 9 9 9 9
7 7 7 7 7 7 7 7 7 7 7 7 7 7 7 8 7 7 7 7 7 8 8 8 8 8 8 8 8 8 8 8 8
7 7 7 7 7 7 7 7 7 7 7 7 7 7 7 7 7 7 7 7 7 7 7 7 8 8 8 9 9 8 8 8 8
7 6 6 6 6 7 7 7 7 6 6 6 7 7 7 7 7 7 7 7 7 7 7 7 7 7 7 8 8 8 8 8 8
7 7 7 6 6 6 6 7 7 6 6 6 6 6 7 7 7 7 7 7 7 7 7 7 7 7 7 7 7 7 7 7 7
7 7 7 7 7 6 6 6 6 6 6 6 6 6 6 7 7 7 8 7 7 7 7 7 7 7 7 7 7 7 7 7 7
7 6 6 6 6 6 6 6 6 6 6 6 6 6 6 6 7 7 7 7 7 7 7 7 7 7 7 7 7 7 7 7 7
7 7 6 6 5 5 6 5 6 6 6 6 6 6 6 6 6 7 7 7 7 7 7 7 7 7 7 7 7 7 7 6 6
7 7 6 6 6 5 5 5 5 5 5 5 5 6 6 6 6 6 7 7 7 7 7 7 7 6 6 6 6 6 6 6 6
6 6 6 6 6 5 5 5 5 5 5 5 5 5 6 6 6 6 6 6 6 6 6 6 6 6 6 6 5 5 5 5 5
6 6 5 5 5 5 4 5 5 5 5 4 5 5 5 5 6 6 6 6 6 6 6 6 6 6 6 5 5 5 5 5 5
7 6 5 5 4 4 4 4 4 4 5 4 4 5 5 5 5 6 6 6 5 5 5 5 5 5 5 5 5 5 5 5 5
6 5 4 3 3 2 2 3 3 3 3 4 4 4 4 4 5 5 5 5 5 5 5 5 5 5 5 5 5 5 5 4 4
4 4 4 3 2 1 0 1 2 2 3 3 3 4 4 4 4 4 4 5 5 5 5 4 4 4 4 4 4 4 4 4 4
3 3 2 1 1 -0 -1 -1 1 1 2 2 2 4 3 4 4 4 4 4 4 4 4 4 4 4 4 4 4 4 4 4 4
1 1 0 -0 -1 -2 -2 -2 -1 1 1 2 2 2 2 3 3 3 4 4 4 3 4 3 3 3 3 4 4 4 4 4 4
1 -0 -1 -2 -3 -4 -4 -3 -2 -1 -0 1 2 2 2 2 1 2 2 2 4 2 2 2 2 2 3 3 4 4 4 4 4
-0 -1 -2 -2 -3 -4 -4 -3 -2 -1 -1 0 1 1 2 2 3 2 2 2 0 1 1 0 1 2 2 3 3 3 3 3 3
-0 -2 -2 -3 -3 -4 -4 -4 -3 -2 -1 -0 0 0 1 1 1 0 2 1 0 -0 0 0 0 1 2 2 2 2 2 3 3
-1 -1 -2 -2 -3 -3 -3 -3 -3 -2 -1 -0 0 0 1 1 -0 0 1 0 0 0 1 -1 -1 1 1 2 2 3 2 2 3
Height
3149 3148 3147 3147 3147 3147 3147 3147 3147 3146 3146 3146 3146 3146 3145 3145 3145 3145 3145 3145 3146 3147 3147 3148 3148 3148 3148 3149 3149 3149 3149 3149 3149
3145 3144 3145 3145 3145 3144 3144 3144 3144 3144 3144 3144 3143 3143 3143 3143 3143 3143 3143 3144 3144 3145 3145 3146 3146 3147 3148 3148 3148 3148 3148 3148 3148
3142 3141 3141 3141 3141 3141 3141 3141 3140 3141 3141 3141 3141 3140 3140 3141 3141 3141 3141 3142 3143 3143 3144 3144 3144 3145 3145 3145 3145 3146 3146 3146 3146
3137 3137 3137 3137 3137 3137 3137 3137 3137 3137 3137 3137 3137 3138 3138 3137 3138 3139 3139 3140 3140 3141 3142 3142 3143 3143 3143 3143 3144 3143 3143 3144 3144
3131 3131 3132 3132 3132 3133 3133 3132 3132 3133 3133 3133 3133 3133 3133 3135 3135 3135 3136 3137 3137 3138 3139 3140 3140 3141 3141 3141 3142 3142 3142 3142 3142
3123 3123 3123 3125 3126 3126 3127 3128 3128 3128 3128 3129 3129 3129 3130 3130 3131 3132 3132 3133 3134 3135 3135 3136 3137 3138 3138 3139 3139 3139 3140 3140 3140
3115 3116 3115 3116 3117 3119 3120 3121 3122 3122 3122 3123 3124 3125 3126 3126 3127 3128 3129 3130 3130 3130 3131 3132 3133 3134 3135 3135 3136 3136 3137 3137 3137
3107 3108 3109 3109 3110 3110 3111 3113 3113 3115 3117 3118 3118 3119 3121 3122 3123 3124 3125 3126 3127 3127 3128 3128 3129 3130 3131 3132 3133 3134 3134 3134 3135
3098 3097 3098 3100 3101 3102 3102 3103 3106 3107 3109 3111 3112 3113 3114 3116 3118 3119 3121 3122 3123 3123 3124 3125 3126 3127 3127 3128 3129 3130 3131 3131 3132
3088 3088 3088 3088 3089 3092 3093 3095 3097 3098 3100 3103 3105 3107 3108 3109 3111 3113 3115 3117 3118 3118 3120 3121 3122 3123 3124 3124 3125 3126 3126 3127 3128
3080 3078 3077 3077 3078 3079 3082 3084 3086 3089 3092 3093 3097 3099 3102 3103 3105 3107 3108 3111 3112 3113 3114 3115 3116 3117 3118 3119 3120 3122 3123 3123 3124
3070 3068 3065 3064 3064 3066 3069 3072 3074 3078 3081 3085 3088 3091 3094 3096 3098 3100 3101 3103 3104 3106 3108 3109 3110 3111 3113 3114 3114 3116 3117 3119 3119
3062 3057 3054 3053 3051 3051 3052 3058 3063 3067 3071 3075 3079 3082 3085 3088 3090 3092 3093 3094 3097 3099 3100 3102 3104 3105 3107 3108 3109 3110 3111 3112 3114
3054 3049 3045 3042 3040 3040 3041 3044 3050 3056 3062 3066 3069 3072 3076 3078 3081 3082 3084 3086 3089 3092 3093 3095 3096 3098 3100 3102 3103 3104 3105 3106 3107
3044 3039 3035 3031 3028 3027 3029 3033 3039 3045 3051 3054 3058 3061 3065 3069 3072 3075 3077 3078 3080 3083 3085 3086 3087 3090 3093 3095 3096 3097 3098 3099 3100
3036 3031 3026 3020 3018 3017 3020 3023 3029 3036 3041 3045 3049 3052 3057 3057 3063 3064 3067 3065 3064 3071 3077 3064 3076 3080 3086 3089 3090 3091 3091 3093 3094
3030 3024 3019 3015 3013 3012 3014 3016 3021 3027 3034 3038 3043 3046 3050 3046 3046 3050 3052 3044 3042 3057 3061 3062 3067 3072 3077 3080 3082 3083 3086 3086 3087
3026 3021 3016 3013 3010 3008 3009 3012 3015 3021 3028 3032 3038 3040 3042 3044 3044 3042 3046 3046 3046 3053 3051 3058 3063 3069 3071 3071 3077 3080 3080 3079 3079
3025 3019 3015 3011 3008 3006 3006 3009 3012 3018 3023 3027 3030 3035 3040 3043 3046 3042 3042 3044 3047 3046 3048 3054 3056 3062 3065 3065 3068 3071 3070 3071 3071
3027 3021 3017 3013 3009 3005 3005 3009 3012 3016 3020 3024 3028 3032 3037 3035 3040 3039 3038 3042 3043 3044 3044 3047 3053 3056 3058 3059 3060 3061 3062 3062 3061
Wind_Speed
20 19 17 15 15 14 14 13 12 10 10 11 11 11 11 12 14 14 12 12 11 11 10 9 9 9 9 9 8 8 8 7 7
23 23 21 20 19 18 17 16 15 14 13 13 12 11 11 11 12 14 14 13 12 12 11 11 10 10 10 10 9 9 9 9 8
26 25 25 24 23 22 21 19 18 18 17 15 14 13 12 11 12 12 14 14 14 13 12 12 12 12 12 12 12 11 11 10 10
29 28 28 28 26 25 25 24 23 21 20 18 16 15 15 13 12 13 14 14 15 15 14 14 13 13 13 13 13 13 12 11 11
32 32 32 30 31 29 29 28 27 25 23 22 20 18 18 16 15 14 14 14 15 15 16 15 15 15 14 14 14 14 14 13 13
35 35 36 35 34 33 33 31 30 29 27 26 24 22 20 20 19 17 15 15 15 16 16 16 16 15 15 14 14 14 13 13 13
38 37 38 37 36 37 36 35 34 33 31 28 27 26 23 22 22 21 18 17 17 16 16 16 15 14 14 13 12 12 12 11 11
41 40 40 41 37 40 40 38 38 36 35 33 31 29 27 25 25 24 21 21 19 19 18 17 16 15 14 13 12 11 11 10 10
39 42 42 41 42 42 40 42 40 38 37 36 35 33 31 29 28 27 24 24 23 22 21 20 19 17 16 16 15 14 14 14 14
39 41 42 43 44 44 46 44 44 41 39 38 36 35 33 32 32 30 28 27 27 26 25 24 23 21 20 19 19 19 18 18 18
37 40 42 44 46 46 44 47 49 48 43 41 40 38 37 37 36 34 33 30 31 30 29 28 26 25 23 22 22 22 22 20 20
38 40 43 45 45 48 48 46 45 48 48 47 41 40 41 40 40 39 38 36 35 34 33 31 30 29 27 26 25 24 23 23 22
37 42 45 44 48 49 50 48 47 45 44 45 48 44 42 42 41 42 43 42 40 36 33 33 32 30 30 28 26 26 25 23 24
33 34 37 45 47 46 51 48 47 49 43 44 46 43 47 45 43 43 45 42 41 40 39 36 33 31 30 29 28 27 26 27 27
31 31 35 40 41 42 42 48 45 46 46 40 40 35 47 42 48 45 49 45 48 45 42 37 31 28 26 25 27 27 28 27 26
25 27 27 29 33 33 34 38 42 42 43 48 44 47 45 35 47 50 41 47 44 52 40 26 24 23 25 27 28 28 28 28 28
27 24 25 25 23 25 20 29 32 35 34 39 44 34 39 28 34 34 41 47 22 44 31 26 28 30 32 29 30 30 29 31 33
25 25 23 23 21 19 17 21 24 27 29 34 32 29 33 43 28 26 43 38 27 21 21 20 24 28 31 33 29 28 29 33 36
26 24 22 20 14 13 12 15 16 19 23 28 34 32 29 31 30 26 29 32 26 22 25 31 33 29 29 30 31 32 34 37 39
24 20 15 14 12 7 4 6 7 11 15 18 26 24 28 25 24 22 16 21 31 30 25 21 28 33 33 32 35 38 39 42 41
Wind_Direction
275 278 274 266 267 269 272 264 266 263 267 275 283 284 275 264 252 246 240 232 227 227 225 228 231 230 231 232 237 242 244 250 255
270 270 270 269 264 262 264 262 264 266 270 270 272 278 278 268 258 250 243 237 231 227 226 232 236 240 243 244 244 246 251 257 262
271 270 268 265 262 260 259 257 258 261 262 266 267 265 268 267 257 250 248 245 241 238 235 234 236 238 242 247 251 254 255 258 262
271 272 269 267 266 260 256 257 258 257 256 257 257 263 262 258 256 253 249 245 247 247 245 244 245 247 250 252 256 259 261 263 266
269 266 267 269 266 264 259 255 254 256 256 254 252 253 254 256 253 248 249 249 249 247 250 249 250 252 255 258 262 267 272 275 276
267 265 263 262 262 263 260 257 255 253 252 253 254 252 251 249 249 248 246 241 244 248 247 250 251 253 256 259 262 266 270 276 280
272 266 261 258 258 257 259 257 255 254 252 251 251 254 254 250 248 247 245 244 245 243 242 244 249 252 254 257 260 264 270 276 282
274 271 269 265 260 258 255 255 255 253 254 253 252 250 251 252 251 248 246 244 244 246 245 243 240 241 247 253 257 263 268 274 278
274 272 268 264 260 257 256 252 252 253 250 252 252 251 247 247 251 249 245 246 246 246 247 248 249 248 249 250 254 260 264 268 275
277 274 270 266 259 256 253 254 250 248 248 248 250 251 252 250 247 247 245 243 245 245 246 246 247 250 253 253 254 257 261 267 272
280 278 274 269 264 259 252 251 250 248 246 246 247 249 251 253 251 247 247 242 246 246 245 245 247 248 249 255 260 263 266 265 269
290 283 275 269 266 262 256 249 248 248 246 246 246 247 249 251 251 250 247 243 244 242 243 243 245 248 251 253 257 262 264 269 269
289 282 279 274 267 260 256 250 245 243 243 247 246 246 247 248 249 251 249 247 244 242 241 244 245 246 250 252 255 259 264 264 269
302 294 289 281 275 266 260 252 243 240 242 248 244 245 246 245 246 247 248 248 245 243 244 241 241 242 246 249 253 256 261 268 270
304 300 293 284 278 272 260 258 249 239 238 243 232 254 238 251 244 249 250 248 247 241 239 239 236 241 243 248 251 257 262 264 267
313 306 301 296 285 276 264 255 253 244 237 242 247 246 238 262 248 240 249 235 244 240 232 228 233 240 248 251 252 255 258 265 269
329 327 324 319 285 277 265 258 248 247 238 241 246 257 253 268 254 245 252 242 230 230 231 225 233 238 245 252 252 255 265 271 276
340 336 333 310 297 282 241 241 238 243 236 240 244 251 255 264 259 249 232 241 243 229 222 236 238 238 240 247 258 265 269 274 277
349 347 338 333 300 278 249 234 232 234 237 243 245 257 258 271 260 265 243 246 233 228 227 225 228 238 247 250 254 265 275 279 279
355 358 351 360 355 333 246 210 227 229 241 247 248 262 251 240 274 278 253 287 259 249 242 243 242 241 248 255 264 266 276 279 282